Location: *
(49.7115°N, 15.0136°E)
Time: 23:16:03
(UTC+00:00)

Resurs 1-3 - Pass Details

Date: 27 February 2020
Orbit: 630 x 632 km, 97.9° (Epoch: 05 April)

Event Time Altitude Azimuth Distance (km) Brightness Sun altitude
Exits shadow 18:44:36 52° 67° (ENE) 795 3.7 -21.1°
Drops below altitude 10° 18:48:49 10° 355° (N) 2,027 6.4 -21.8°
Sets 18:51:04 0° 351° (N) 2,940 7.3 -22.1°
